• In Hungary
  • List of Countries
  • For 7 days
  • Water Temperature
  • Satellite Maps
  • Weather Map
  • News
  • Weather Widgets
  • user-avatar
    Login

    Hourly Weather Kitow

    Today, 23 July, Monday

    Time Temperature Precipitation Wind Pressure Humidity
    00:00 +20°C° 0 mm 1 mps 739 mmHg 83%
    01:00 +19°C° 0 mm 2 mps 739 mmHg 85%
    02:00 +19°C° 0 mm 2 mps 739 mmHg 86%
    03:00 +18°C° 0 mm 2 mps 739 mmHg 88%
    04:00 +18°C° 0 mm 2 mps 739 mmHg 90%
    05:00 +18°C° 0 mm 2 mps 739 mmHg 92%
    06:00 +19°C° 0 mm 3 mps 739 mmHg 89%
    07:00 +20°C° 0 mm 3 mps 739 mmHg 85%
    08:00 +21°C° 0 mm 3 mps 739 mmHg 82%
    09:00 +23°C° 0.3 mm 4 mps 739 mmHg 77%
    10:00 +25°C° 0.3 mm 4 mps 739 mmHg 73%
    11:00 +26°C° 0.3 mm 5 mps 739 mmHg 68%
    12:00 +26°C° 0.4 mm 5 mps 739 mmHg 66%
    13:00 +27°C° 0.4 mm 5 mps 739 mmHg 64%
    14:00 +27°C° 0.4 mm 5 mps 739 mmHg 62%
    15:00 +27°C° 0.6 mm 5 mps 739 mmHg 65%
    16:00 +27°C° 0.6 mm 5 mps 739 mmHg 68%
    17:00 +26°C° 0.6 mm 5 mps 738 mmHg 72%
    18:00 +25°C° 0.4 mm 5 mps 738 mmHg 77%
    19:00 +23°C° 0.4 mm 4 mps 738 mmHg 81%
    20:00 +21°C° 0.4 mm 4 mps 738 mmHg 86%
    21:00 +21°C° 0.3 mm 4 mps 738 mmHg 87%
    22:00 +21°C° 0.3 mm 4 mps 739 mmHg 88%
    23:00 +20°C° 0.3 mm 5 mps 739 mmHg 90%

    Tomorrow, 24 July, Tuesday

    Time Temperature Precipitation Wind Pressure Humidity
    00:00 +20°C° 0.3 mm 5 mps 739 mmHg 91%
    01:00 +20°C° 0.3 mm 5 mps 739 mmHg 92%
    02:00 +19°C° 0.3 mm 5 mps 739 mmHg 93%
    03:00 +19°C° 0.3 mm 5 mps 739 mmHg 94%
    04:00 +18°C° 0.3 mm 4 mps 739 mmHg 94%
    05:00 +18°C° 0.3 mm 4 mps 739 mmHg 95%
    06:00 +19°C° 0.4 mm 4 mps 739 mmHg 93%
    07:00 +19°C° 0.4 mm 4 mps 740 mmHg 91%
    08:00 +20°C° 0.4 mm 4 mps 740 mmHg 89%
    09:00 +21°C° 0.2 mm 5 mps 740 mmHg 86%
    10:00 +22°C° 0.2 mm 5 mps 740 mmHg 84%
    11:00 +23°C° 0.2 mm 5 mps 740 mmHg 81%
    12:00 +25°C° 0.5 mm 5 mps 740 mmHg 78%
    13:00 +26°C° 0.5 mm 5 mps 740 mmHg 74%
    14:00 +26°C° 0.5 mm 5 mps 739 mmHg 71%
    15:00 +26°C° 1.2 mm 5 mps 739 mmHg 72%
    16:00 +26°C° 1.2 mm 5 mps 739 mmHg 73%
    17:00 +26°C° 1.2 mm 4 mps 739 mmHg 75%
    18:00 +25°C° 0.9 mm 4 mps 739 mmHg 79%
    19:00 +23°C° 0.9 mm 4 mps 739 mmHg 83%
    20:00 +22°C° 0.9 mm 3 mps 739 mmHg 87%
    21:00 +21°C° 0.2 mm 3 mps 739 mmHg 89%
    22:00 +20°C° 0.2 mm 3 mps 739 mmHg 91%
    23:00 +20°C° 0.2 mm 3 mps 740 mmHg 93%

    Day after tomorrow, 25 July, Wednesday

    Time Temperature Precipitation Wind Pressure Humidity
    00:00 +19°C° 0 mm 3 mps 740 mmHg 94%
    01:00 +19°C° 0 mm 3 mps 740 mmHg 95%
    02:00 +19°C° 0 mm 3 mps 740 mmHg 96%
    03:00 +18°C° 0.1 mm 3 mps 740 mmHg 96%
    04:00 +18°C° 0.1 mm 3 mps 740 mmHg 97%
    05:00 +18°C° 0.1 mm 2 mps 740 mmHg 97%
    06:00 +19°C° 0 mm 3 mps 740 mmHg 95%
    07:00 +20°C° 0 mm 3 mps 740 mmHg 92%
    08:00 +21°C° 0 mm 3 mps 740 mmHg 89%
    09:00 +22°C° 0.3 mm 3 mps 740 mmHg 85%
    10:00 +24°C° 0.3 mm 3 mps 740 mmHg 81%
    11:00 +25°C° 0.3 mm 4 mps 741 mmHg 77%
    12:00 +26°C° 1.5 mm 4 mps 740 mmHg 75%
    13:00 +26°C° 1.5 mm 4 mps 740 mmHg 73%
    14:00 +27°C° 1.5 mm 4 mps 740 mmHg 71%
    15:00 +27°C° 0.9 mm 4 mps 740 mmHg 72%
    16:00 +27°C° 0.9 mm 4 mps 740 mmHg 73%
    17:00 +27°C° 0.9 mm 3 mps 739 mmHg 73%
    18:00 +26°C° 0.4 mm 3 mps 739 mmHg 78%
    19:00 +24°C° 0.4 mm 2 mps 739 mmHg 82%
    20:00 +23°C° 0.4 mm 2 mps 739 mmHg 87%
    21:00 +21°C° 0 mm 2 mps 739 mmHg 89%
    22:00 +21°C° 0 mm 2 mps 740 mmHg 91%
    23:00 +20°C° 0 mm 2 mps 740 mmHg 93%

    26 July, Thursday

    Time Temperature Precipitation Wind Pressure Humidity
    00:00 +20°C° 0 mm 2 mps 740 mmHg 94%
    01:00 +19°C° 0 mm 2 mps 740 mmHg 95%
    02:00 +19°C° 0 mm 2 mps 740 mmHg 95%
    03:00 +19°C° 0 mm 2 mps 740 mmHg 96%
    04:00 +19°C° 0 mm 2 mps 740 mmHg 96%
    05:00 +18°C° 0 mm 2 mps 740 mmHg 97%
    06:00 +20°C° 0 mm 2 mps 740 mmHg 94%
    07:00 +21°C° 0 mm 2 mps 740 mmHg 91%
    08:00 +23°C° 0 mm 2 mps 740 mmHg 88%
    09:00 +24°C° 0.2 mm 2 mps 740 mmHg 84%
    10:00 +25°C° 0.2 mm 2 mps 740 mmHg 81%
    11:00 +26°C° 0.2 mm 2 mps 741 mmHg 77%
    12:00 +27°C° 0.9 mm 2 mps 740 mmHg 75%
    13:00 +27°C° 0.9 mm 1 mps 740 mmHg 72%
    14:00 +28°C° 0.9 mm 1 mps 740 mmHg 69%
    15:00 +28°C° 0.3 mm 1 mps 740 mmHg 67%
    16:00 +28°C° 0.3 mm 1 mps 740 mmHg 66%
    17:00 +29°C° 0.3 mm 1 mps 740 mmHg 64%
    18:00 +27°C° 1 mm 1 mps 740 mmHg 70%
    19:00 +26°C° 1 mm 1 mps 740 mmHg 76%
    20:00 +25°C° 1 mm 1 mps 740 mmHg 82%
    21:00 +24°C° 1.1 mm 1 mps 740 mmHg 84%
    22:00 +23°C° 1.1 mm 1 mps 740 mmHg 86%
    23:00 +23°C° 1.1 mm 1 mps 740 mmHg 88%

    27 July, Friday

    Time Temperature Precipitation Wind Pressure Humidity
    00:00 +22°C° 0.2 mm 1 mps 740 mmHg 89%
    01:00 +22°C° 0.2 mm 1 mps 740 mmHg 90%
    02:00 +22°C° 0.2 mm 1 mps 740 mmHg 91%
    03:00 +21°C° 0 mm 1 mps 740 mmHg 92%
    04:00 +21°C° 0 mm 1 mps 740 mmHg 93%
    05:00 +21°C° 0 mm 1 mps 740 mmHg 94%
    06:00 +22°C° 0 mm 1 mps 741 mmHg 90%
    07:00 +23°C° 0 mm 1 mps 741 mmHg 87%
    08:00 +25°C° 0 mm 1 mps 741 mmHg 83%
    09:00 +26°C° 0.1 mm 1 mps 741 mmHg 77%
    10:00 +27°C° 0.1 mm 1 mps 741 mmHg 71%
    11:00 +29°C° 0.1 mm 2 mps 741 mmHg 66%
    12:00 +29°C° 0.5 mm 2 mps 741 mmHg 63%
    13:00 +30°C° 0.5 mm 1 mps 740 mmHg 61%
    14:00 +31°C° 0.5 mm 1 mps 740 mmHg 59%
    15:00 +30°C° 1.5 mm 1 mps 740 mmHg 60%
    16:00 +30°C° 1.5 mm 1 mps 740 mmHg 62%
    17:00 +30°C° 1.5 mm 1 mps 740 mmHg 64%
    18:00 +29°C° 0.3 mm 1 mps 740 mmHg 69%
    19:00 +27°C° 0.3 mm 1 mps 740 mmHg 73%
    20:00 +26°C° 0.3 mm 1 mps 740 mmHg 78%
    21:00 +25°C° 0 mm 1 mps 740 mmHg 81%
    22:00 +24°C° 0 mm 1 mps 740 mmHg 83%
    23:00 +24°C° 0 mm 1 mps 740 mmHg 85%

    28 July, Saturday

    Time Temperature Precipitation Wind Pressure Humidity
    00:00 +23°C° 0 mm 1 mps 740 mmHg 87%
    01:00 +23°C° 0 mm 1 mps 740 mmHg 88%
    02:00 +23°C° 0 mm 1 mps 740 mmHg 89%
    03:00 +22°C° 0 mm 1 mps 740 mmHg 89%
    04:00 +22°C° 0 mm 1 mps 740 mmHg 90%
    05:00 +22°C° 0 mm 1 mps 740 mmHg 90%
    06:00 +23°C° 0 mm 1 mps 741 mmHg 86%
    07:00 +25°C° 0 mm 1 mps 741 mmHg 82%
    08:00 +26°C° 0 mm 1 mps 741 mmHg 78%
    09:00 +28°C° 0 mm 1 mps 741 mmHg 73%
    10:00 +29°C° 0 mm 2 mps 741 mmHg 68%
    11:00 +30°C° 0 mm 2 mps 741 mmHg 63%
    12:00 +31°C° 0.4 mm 2 mps 741 mmHg 62%
    13:00 +31°C° 0.4 mm 2 mps 741 mmHg 61%
    14:00 +31°C° 0.4 mm 2 mps 741 mmHg 60%
    15:00 +31°C° 1.2 mm 2 mps 741 mmHg 64%
    16:00 +30°C° 1.2 mm 2 mps 741 mmHg 67%
    17:00 +30°C° 1.2 mm 1 mps 741 mmHg 71%
    18:00 +29°C° 0.5 mm 1 mps 741 mmHg 75%
    19:00 +27°C° 0.5 mm 1 mps 741 mmHg 79%
    20:00 +26°C° 0.5 mm 1 mps 742 mmHg 83%
    21:00 +25°C° 0 mm 1 mps 742 mmHg 85%
    22:00 +25°C° 0 mm 1 mps 742 mmHg 87%
    23:00 +24°C° 0 mm 2 mps 742 mmHg 88%
    Show more